Weather History for KNYC - March, 2010

Change the Weather History Date:

Monday, March 22, 2010

  Actual Average Record
Temperature  
Mean Temperature 54 °F 44 °F  
Max Temperature 57 °F 52 °F 78 °F (2012)
Min Temperature 50 °F 37 °F 12 °F (1885)
Degree Days  
Heating Degree Days 11 21  
Month to date heating degree days 354 528  
Since 1 July heating degree days 3886 4050  
Cooling Degree Days 0 0  
Month to date cooling degree days 0 0  
Year to date cooling degree days 0 0  
Growing Degree Days 4 (Base 50)    
Moisture  
Dew Point 52 °F    
Average Humidity 86    
Maximum Humidity 100    
Minimum Humidity 71    
Precipitation  
Precipitation 1.34 in 0.15 in 3.44 in (1977)
Month to date precipitation 6.06 2.98  
Year to date precipitation 14.83 9.72  
Snow  
Snow 0.00 in 0.10 in 9.00 in (1967)
Month to date snowfall T 3.3  
Since 1 July snowfall 51.4 24.6  
Snow Depth 0.00 in    
Sea Level Pressure  
Sea Level Pressure 29.91 in    
Wind  
Wind Speed 6 mph (East)    
Max Wind Speed 14 mph    
Max Gust Speed 21 mph    
Visibility 4 miles    
Events Rain    
T = Trace of Precipitation, MM = Missing Value Source: NWS Daily Summary

Daily Weather History Graph

Daily Weather History Graph

Search for Another Location

Airport or City:

Trip Planner

Search our weather history database for the weather conditions in past years. The results will help you decide how hot, cold, wet, or windy it might be!

Date:

Astronomy

Mar. 22, 2010 Rise Set
Actual Time 6:56 AM EDT 7:10 PM EDT
Civil Twilight 6:28 AM EDT 7:37 PM EDT
Nautical Twilight 5:56 AM EDT 8:09 PM EDT
Astronomical Twilight 5:23 AM EDT 8:42 PM EDT
Moon 10:41 AM EDT (3/22) 1:31 AM EDT (3/22)
Length of Visible Light 13h 08m
Length of Day
12h 14m
Waxing Crescent, 41% of the Moon is Illuminated
Mar 22
Waxing Crescent
Mar 23
First Quarter
Mar 29
Full
Apr 6
Last Quarter
Apr 14
New

Hourly Weather History & Observations

Time (EDT) Temp. Dew Point Humidity Pressure Visibility Wind Dir Wind Speed Gust Speed Precip Events Conditions
12:51 AM 53.1 °F 45.0 °F 74% 30.04 in 10.0 mi Variable 3.5 mph - N/A   Clear
1:51 AM 51.1 °F 45.0 °F 80% 30.02 in 10.0 mi NNE 5.8 mph - N/A   Clear
2:51 AM 51.1 °F 45.0 °F 80% 30.01 in 10.0 mi NE 4.6 mph - N/A   Clear
3:51 AM 51.1 °F 45.0 °F 80% 29.99 in 10.0 mi NE 4.6 mph - N/A   Clear
4:51 AM 51.1 °F 46.0 °F 83% 29.99 in 10.0 mi Variable 4.6 mph - N/A   Clear
5:47 AM 51.8 °F 46.4 °F 82% 30.03 in 7.0 mi Variable 4.6 mph - N/A   Scattered Clouds
5:51 AM 51.1 °F 46.0 °F 83% 30.00 in 7.0 mi Variable 4.6 mph - N/A   Scattered Clouds
6:00 AM 51.8 °F 46.4 °F 82% 30.02 in 7.0 mi SE 6.9 mph - N/A   Mostly Cloudy
6:20 AM 50.0 °F 46.4 °F 87% 30.02 in 6.0 mi East 6.9 mph - N/A   Scattered Clouds
6:51 AM 51.1 °F 48.0 °F 89% 30.01 in 5.0 mi East 8.1 mph - N/A   Scattered Clouds
7:09 AM 51.8 °F 48.2 °F 88% 30.03 in 4.0 mi Variable 6.9 mph - N/A   Mostly Cloudy
7:27 AM 51.8 °F 48.2 °F 88% 30.04 in 2.5 mi East 6.9 mph - N/A   Overcast
7:51 AM 51.1 °F 48.9 °F 92% 30.02 in 1.2 mi Variable 3.5 mph - 0.01 in Rain Light Rain
8:10 AM 51.8 °F 48.2 °F 88% 30.03 in 1.2 mi ENE 8.1 mph - 0.00 in   Overcast
8:46 AM 51.8 °F 50.0 °F 94% 30.04 in 2.5 mi Variable 4.6 mph - 0.01 in   Overcast
8:51 AM 51.1 °F 50.0 °F 96% 30.01 in 2.5 mi Variable 3.5 mph - 0.01 in Rain Light Rain
9:34 AM 51.8 °F 51.8 °F 100% 30.03 in 2.5 mi Variable 3.5 mph - 0.02 in   Overcast
9:42 AM 51.8 °F 51.8 °F 100% 30.03 in 3.0 mi NE 5.8 mph - 0.02 in   Overcast
9:51 AM 52.0 °F 51.1 °F 97% 30.02 in 3.0 mi Variable 4.6 mph - 0.02 in   Overcast
10:25 AM 53.6 °F 51.8 °F 94% 30.03 in 2.5 mi ENE 5.8 mph - 0.00 in Rain Light Rain
10:38 AM 53.6 °F 51.8 °F 94% 30.02 in 3.0 mi Variable 5.8 mph - 0.00 in   Mostly Cloudy
10:51 AM 53.1 °F 52.0 °F 96% 30.01 in 3.0 mi East 4.6 mph - 0.00 in   Mostly Cloudy
11:14 AM 53.6 °F 51.8 °F 94% 30.02 in 2.5 mi Variable 3.5 mph - 0.01 in Rain Light Rain
11:32 AM 53.6 °F 51.8 °F 94% 30.03 in 1.5 mi ESE 4.6 mph - 0.02 in Rain Light Rain
11:43 AM 53.6 °F 53.6 °F 100% 30.03 in 2.5 mi Variable 3.5 mph - 0.03 in   Overcast
11:51 AM 53.1 °F 52.0 °F 96% 30.01 in 2.0 mi Variable 4.6 mph - 0.03 in Rain Light Rain
12:07 PM 53.6 °F 51.8 °F 94% 30.02 in 1.2 mi Variable 4.6 mph - 0.02 in Rain Rain
12:39 PM 53.6 °F 51.8 °F 94% 30.00 in 2.5 mi ENE 5.8 mph - 0.06 in Rain Light Rain
12:51 PM 54.0 °F 53.1 °F 97% 29.98 in 2.5 mi NE 5.8 mph - 0.06 in   Overcast
1:00 PM 53.6 °F 53.6 °F 100% 30.00 in 1.2 mi ENE 6.9 mph - 0.02 in Rain Light Rain
1:27 PM 53.6 °F 51.8 °F 94% 29.99 in 2.5 mi Variable 5.8 mph - 0.03 in   Overcast
1:51 PM 54.0 °F 54.0 °F 100% 29.95 in 3.0 mi Variable 5.8 mph - 0.03 in   Overcast
2:51 PM 53.1 °F 52.0 °F 96% 29.92 in 3.0 mi Variable 4.6 mph - 0.00 in Rain Light Rain
3:11 PM 53.6 °F 51.8 °F 94% 29.92 in 2.0 mi ENE 6.9 mph - 0.00 in Rain Light Rain
3:31 PM 53.6 °F 51.8 °F 94% 29.91 in 3.0 mi East 8.1 mph - 0.01 in   Overcast
3:38 PM 53.6 °F 51.8 °F 94% 29.92 in 4.0 mi Calm Calm - 0.01 in   Overcast
3:51 PM 54.0 °F 52.0 °F 93% 29.89 in 5.0 mi Variable 4.6 mph - 0.01 in   Overcast
4:16 PM 53.6 °F 51.8 °F 94% 29.89 in 1.8 mi Variable 5.8 mph - 0.01 in Rain Light Rain
4:21 PM 53.6 °F 51.8 °F 94% 29.89 in 2.0 mi ENE 4.6 mph - 0.02 in Rain Light Rain
4:34 PM 53.6 °F 51.8 °F 94% 29.88 in 3.0 mi ENE 5.8 mph - 0.02 in   Overcast
4:47 PM 53.6 °F 51.8 °F 94% 29.88 in 1.8 mi Variable 3.5 mph - 0.03 in Rain Rain
4:51 PM 53.1 °F 52.0 °F 96% 29.86 in 1.5 mi Variable 5.8 mph - 0.05 in Rain Light Rain
4:57 PM 53.6 °F 51.8 °F 94% 29.87 in 3.0 mi Variable 3.5 mph - 0.00 in Rain Light Rain
5:12 PM 53.6 °F 53.6 °F 100% 29.87 in 5.0 mi Variable 5.8 mph - 0.01 in   Overcast
5:22 PM 53.6 °F 53.6 °F 100% 29.86 in 1.8 mi ENE 8.1 mph - 0.03 in Rain Rain
5:36 PM 53.6 °F 53.6 °F 100% 29.86 in 3.0 mi Variable 4.6 mph - 0.06 in Rain Light Rain
5:51 PM 54.0 °F 53.1 °F 97% 29.85 in 5.0 mi Variable 3.5 mph - 0.06 in   Overcast
6:51 PM 55.9 °F 55.0 °F 97% 29.81 in 8.0 mi Variable 3.5 mph - N/A   Overcast
7:51 PM 57.0 °F 55.0 °F 93% 29.80 in 8.0 mi East 6.9 mph - 0.01 in Rain Light Rain
8:01 PM 57.2 °F 55.4 °F 94% 29.81 in 1.8 mi East 9.2 mph - 0.04 in Rain Rain
8:36 PM 57.2 °F 55.4 °F 94% 29.81 in 2.0 mi Variable 4.6 mph - 0.27 in Rain Rain
8:51 PM 57.0 °F 55.9 °F 96% 29.78 in 5.0 mi SSE 8.1 mph - 0.31 in Rain Light Rain
9:03 PM 57.2 °F 55.4 °F 94% 29.79 in 1.8 mi Variable 3.5 mph - 0.02 in Rain Heavy Rain
9:34 PM 57.2 °F 55.4 °F 94% 29.77 in 2.0 mi Variable 4.6 mph - 0.24 in Rain Rain
9:51 PM 55.9 °F 55.0 °F 97% 29.75 in 4.0 mi Variable 5.8 mph - 0.25 in Rain Light Rain
10:16 PM 55.4 °F 55.4 °F 100% 29.76 in 2.0 mi SE 8.1 mph - 0.00 in   Overcast
10:30 PM 55.4 °F 53.6 °F 94% 29.74 in 3.0 mi Variable 5.8 mph - 0.01 in Rain Light Rain
10:35 PM 55.4 °F 53.6 °F 94% 29.74 in 1.8 mi Variable 4.6 mph - 0.03 in Rain Heavy Rain
10:51 PM 54.0 °F 53.1 °F 97% 29.71 in 1.5 mi South 11.5 mph 18.4 mph 0.12 in Rain Rain
10:58 PM 53.6 °F 53.6 °F 100% 29.73 in 1.0 mi SSE 9.2 mph 18.4 mph 0.06 in Rain Heavy Rain
11:08 PM 53.6 °F 53.6 °F 100% 29.72 in 3.0 mi Variable 4.6 mph - 0.14 in Rain Light Rain
11:26 PM 53.6 °F 51.8 °F 94% 29.71 in 2.5 mi Variable 4.6 mph - 0.18 in Rain Rain
11:40 PM 53.6 °F 51.8 °F 94% 29.70 in 1.5 mi Variable 5.8 mph - 0.26 in Rain Heavy Rain
11:48 PM 53.6 °F 53.6 °F 100% 29.70 in 3.0 mi SSE 9.2 mph - 0.30 in Rain Light Rain
11:51 PM 54.0 °F 53.1 °F 97% 29.68 in 7.0 mi SSE 11.5 mph 20.7 mph 0.30 in Rain Light Rain